Location: Newark
(54.0500°N, 12.8333°E)
Time: 00:24:14
(UTC+00:00)

Transit 4A - Pass Details

Date: 25 January 2020
Orbit: 872 x 973 km, 66.8° (Epoch: 27 February)

Event Time Altitude Azimuth Distance (km) Brightness Sun altitude
Rises 04:21:41 0° 160° (SSE) 3,538 11.2 -24.0°
Reaches altitude 10° 04:25:14 10° 139° (SE) 2,581 10.7 -23.5°
Maximum altitude 04:28:36 16° 104° (ESE) 2,184 10.8 -23.0°
Drops below altitude 10° 04:31:57 10° 70° (ENE) 2,557 11.1 -22.5°
Sets 04:35:26 0° 49° (NE) 3,489 11.6 -22.0°
